DELTA 1 DEB, 10760

Orbit data source: Space-Track

DELTA 1 DEB, 10760 is space debris in SSO originally from a launch on Thu, 29 Jul 1976 UTC launched from the Air Force Western Test Range (AFWTR). Debris objects in space refer to the collection of defunct objects orbiting the Earth. Examples of debris include non-operational satellites, rocket bodies, and fragments generated from explosions, collisions, or faulty payload assembly.

Loading next visibility...
Identifier
10760, 1976-077BH
Orbit
SSO
Country
Flag of USUS
Related business
Manufacturer
Unknown
Mission
Spacecraft
Bus & Motor
Unknown
Mass
Unknown
Launch date (UTC)
1976-07-29 (50 years ago)
Launch vehicle
Unknown
Launch site
Air Force Western Test Range (AFWTR)
Object type
Payload
Rocket body
Debris
Shape & HBR
Unknown shape, 0.1 m
Radar Cross Section
Small (<0.1 m²)

Expand to show TLE details & history
Last TLE update: 1 day ago

TLE from 1 day ago
0 DELTA 1 DEB
1 10760U 76077BH  26117.85435912  .00002117  00000-0  10284-1 0  9992
2 10760 101.5016 258.5241 0555379 208.7990 310.4545 12.34550753626186
Epoch: 2026-04-27T20:30Z
TLE epoch observation values (Epoch: 2026-04-27T20:30:16.627Z)
Latitude
25.28638°
Longitude
-79.39509°
Altitude
1,262.452 km
Speed
7.349 km/s
True Right ascension
05h 36m 02s
True Declination
25° 09' 45"
Sunlit
Object was in daylight at epoch
Visualization orbit readout
Latitude
Unknown
Longitude
Unknown
Altitude
Unknown
Speed
Unknown
Apparent Right ascension
Unknown
Apparent Declination
Unknown
Sunlit
N/A
Visualization observer readout
Local Sidereal Time
13:55:17
Azimuth
Unknown
Elevation
Unknown
Doppler factor
Unknown
Orbital elements
Apogee altitude
1,966.383 km
Perigee altitude
1,088.277 km
Semi-major axis
7,905.467 km
Eccentricity
0.05554
Inclination
101.5016°
RAAN
258.5241°
Arg. of periapsis
208.799°
True anomaly
305.39053°
Mean anomaly
310.4545°
Eccentric anomaly
307.94511°
Mean motion
3.08782 °/min
Orbital period
116.59 mins
BSTAR
0.010284
Loading maneuver chart data...
Computing Atmospheric mass density...
Loading historical data...
Loading historical data...
Loading historical data...
Loading historical data...
Loading historical data...
Loading historical data...
Loading historical data...

Documentation

Showing up to 5 results
|